IRIDIUM 125

Last updated on Tue Sep 22 2026 00:03:21 GMT+0000 (Coordinated Universal Time)

1 42964U 17061K 26263.76030994 .00000010 00000+0 -34022-5 0 9994 2 42964 86.4030 345.4507 0002581 85.9100 274.2391 14.34217753468558
UTC large
Height (km)
Speed (km/s)
/
Latitude / Longitude
Inclination (degrees)
Orbital Period (minutes)
Azimuth
Elevation
Range (km)
Doppler Factor

Next 0 passes for location: London (51.5072 / 0.1276)

No passes found over London.
IRIDIUM 125